sat.trackr.live / text

‹ back to catalog

STARLINK-36945

NORAD 68050 · 2026-041L

PAYLOAD ACTIVE UNKNOWN

§ Identity

Operator
Country
US
Launch date
2026-03-02
Launch site
AFETR
Launch vehicle
Mass (kg)
RCS (m²)

Purposes: comms

External: N2YO · Heavens-Above · Gunter

§ Orbital elements

Epoch: 2026-09-19T10:38:43.310112Z

Period
93.85 min
Inclination
53.1577°
Eccentricity
0.0001707
Mean motion
15.34405136 rev/d
Perigee alt
461.5 km
Apogee alt
463.9 km
Semi-major
6,840.8 km
B*
6.4876e-4
RAAN
224.8718°
Arg perigee
109.5525°
Mean anomaly
250.5662°
Rev number
3,112

§ Raw data

STARLINK-369451 68050U 26041L   26262.44355683  .00021610  00000+0  64876-3 0  99912 68050  53.1577 224.8718 0001707 109.5525 250.5662 15.34405136 31128

JSON: /api/v1/satellites/68050 · /tle

For live sub-satellite position, see the globe view (requires WebGL).

§ Visibility from observer

Set your observer location to see the next 7 days of passes ≥ 10°. The values pass through the URL so the page stays shareable.

No JS? Fill the form by hand. The geolocation button needs JavaScript.